Theta_e
359 359 357 350 321 314 312 316 323 320 321 328 328 328 327 329 322 315 342 348 350 354 358 359 365 364 363 364 364 364 363 363 363 363 360 361 361 361 361 361 360 360 359 359 359 359 360 359 360
359 356 353 343 309 305 310 321 320 323 327 330 331 331 328 325 336 337 340 349 353 355 357 359 364 364 361 362 364 364 361 361 362 362 362 360 361 360 360 360 361 360 359 358 358 359 360 359 360
359 361 343 331 311 306 308 321 321 326 330 329 327 333 332 330 338 339 346 351 353 353 356 359 365 364 361 362 363 362 362 361 361 362 362 362 361 360 360 359 358 359 359 360 359 359 360 360 360
353 352 345 314 309 313 316 323 325 326 330 332 330 326 335 341 339 342 348 350 350 353 355 364 363 361 362 363 363 360 360 361 362 361 358 361 361 360 358 360 360 360 360 360 360 360 360 362 361
344 342 326 310 314 319 321 325 326 325 328 330 331 327 329 340 345 345 346 349 350 353 357 361 367 366 363 364 362 360 361 363 361 362 361 361 361 362 361 361 360 361 360 360 360 359 360 362 360
329 336 311 309 315 320 324 327 327 327 329 330 329 328 329 342 343 344 347 349 353 354 357 360 365 366 364 363 361 360 360 361 362 362 362 361 361 361 362 362 360 360 361 361 360 359 358 359 357
328 321 309 311 315 317 323 329 326 327 328 328 332 324 331 338 343 345 349 351 353 356 357 358 358 360 363 362 361 361 361 362 362 362 362 361 360 360 358 360 360 360 360 361 361 360 357 358 359
331 323 313 313 314 316 325 327 329 328 327 335 334 323 325 337 344 349 350 351 352 353 354 354 354 355 354 355 362 361 362 362 362 362 361 360 361 360 361 362 361 360 361 360 361 360 360 359 358
336 316 313 315 316 320 326 324 329 334 329 331 332 331 337 342 343 346 346 346 348 350 351 352 352 352 352 353 357 361 361 360 362 361 362 362 353 354 357 359 361 360 361 361 360 358 360 361 359
328 318 319 327 325 323 327 327 328 328 327 327 329 333 339 341 343 343 341 341 343 346 348 349 351 351 350 355 355 355 354 357 357 355 355 353 351 351 354 358 361 361 361 361 361 360 360 355 352
327 322 326 329 326 328 322 326 330 327 323 326 325 329 337 340 343 341 341 342 343 346 347 347 348 349 348 352 353 353 351 354 355 353 352 352 354 353 357 353 357 354 359 354 356 356 356 351 350
322 327 328 329 332 325 325 327 328 328 327 331 331 332 336 337 337 337 338 339 340 340 344 345 346 346 347 350 353 353 351 351 348 349 351 351 351 352 350 351 352 350 352 351 353 350 353 350 352
324 324 327 330 328 325 331 328 326 327 332 333 333 332 330 330 334 337 338 339 339 338 342 343 345 347 348 348 349 350 350 353 351 350 352 354 348 349 350 350 352 351 349 350 347 350 350 349 351
327 325 325 327 327 329 326 326 330 329 332 331 331 330 329 329 332 334 336 335 337 339 341 342 346 349 345 343 343 347 349 352 352 351 353 353 349 348 350 351 354 355 353 351 351 348 350 348 349
326 320 324 325 324 326 328 322 326 329 331 329 330 330 330 330 331 331 335 334 335 340 342 345 347 347 343 345 347 346 347 350 348 350 353 353 353 352 351 351 350 350 353 351 354 351 350 351 352
319 320 313 323 323 328 322 311 323 327 328 326 328 329 330 330 331 333 336 335 335 342 342 345 349 347 344 347 347 350 347 347 347 351 355 354 353 353 351 352 353 351 354 352 350 349 346 345 344
314 307 313 317 327 325 323 316 323 326 326 325 326 327 329 329 329 334 337 337 337 343 343 343 344 346 344 347 347 348 349 350 352 353 355 355 355 357 353 354 350 352 349 346 345 339 336 342 343
306 307 313 313 321 323 318 316 323 326 325 325 325 326 327 328 327 333 337 338 338 342 344 344 344 345 343 348 346 346 347 350 352 354 353 352 349 357 353 353 353 352 349 341 338 335 337 339 343
314 310 310 316 321 320 318 316 321 325 328 325 322 323 324 325 329 332 337 339 338 340 339 342 340 341 346 346 344 345 344 344 346 348 352 348 348 357 354 352 351 351 342 339 336 334 334 337 343
312 311 311 317 320 318 317 317 321 321 326 328 325 324 325 326 327 329 334 336 338 339 337 338 340 342 347 346 345 346 346 346 351 350 350 349 352 353 354 351 350 347 340 334 336 336 331 334 335
309 309 311 311 316 316 314 311 316 322 328 330 331 327 327 328 327 328 330 334 337 337 337 338 342 345 347 346 346 348 350 351 353 351 350 353 355 353 353 351 346 345 337 336 336 340 332 330 334
297 316 316 315 309 302 313 298 313 317 322 323 326 327 327 329 330 330 329 333 336 337 339 342 346 347 347 347 345 346 345 343 345 344 344 345 354 355 355 354 345 341 339 337 341 341 337 330 328
305 317 316 315 307 305 308 301 304 315 314 320 323 327 329 330 331 331 332 332 337 338 337 342 347 347 348 348 347 346 343 345 338 333 332 343 353 354 356 353 345 343 342 343 340 336 334 332 330
307 306 308 307 302 296 301 302 301 312 316 319 322 324 330 331 333 334 335 334 336 338 338 340 346 345 346 348 348 346 346 340 335 335 335 344 348 351 353 351 344 343 344 342 340 336 332 331 330
303 296 291 292 291 293 299 299 304 315 319 320 322 322 329 332 332 334 334 335 335 336 338 339 346 343 343 344 349 351 348 343 342 341 341 341 347 350 349 348 345 341 345 345 342 335 329 328 327
299 296 292 288 289 294 298 297 304 313 317 317 322 325 326 331 333 334 335 336 337 338 339 340 342 345 345 344 345 349 351 347 344 342 336 334 347 349 350 352 346 345 348 345 341 336 334 327 323
297 294 298 293 293 292 295 302 308 318 319 320 320 324 326 331 333 334 336 337 339 341 341 342 342 344 348 348 347 348 351 352 346 343 333 333 349 350 350 353 347 346 345 345 337 333 328 329 323
300 301 293 291 289 288 295 298 299 311 314 318 321 323 324 326 332 333 334 336 338 344 345 347 346 345 349 350 350 350 351 353 353 347 345 346 349 350 351 352 349 345 345 344 340 332 328 327 325
297 295 295 294 292 291 293 297 312 314 315 316 320 323 325 325 326 328 333 337 339 342 346 348 349 349 351 352 354 353 354 355 354 354 352 349 348 349 351 351 347 344 345 342 335 330 326 325 322
298 297 294 292 291 292 296 298 317 317 315 318 318 321 321 321 324 326 326 333 336 339 343 349 349 350 353 354 355 356 358 357 356 357 353 350 348 351 351 351 346 343 345 341 337 330 327 324 319
Wind_Speed
2 5 4 1 5 4 3 4 9 10 5 3 16 6 9 4 4 5 13 12 13 7 7 10 14 16 16 16 16 16 16 16 16 16 16 15 14 13 13 13 12 11 9 8 7 6 6 6 8
3 5 1 2 7 5 2 7 13 11 12 17 14 8 10 5 8 14 13 16 13 9 6 9 14 14 14 15 15 14 16 14 16 15 14 14 14 12 11 11 10 9 8 7 6 6 6 5 5
9 5 2 3 2 6 5 11 14 12 8 7 9 10 6 8 13 15 15 18 14 9 6 11 15 13 14 13 14 14 13 12 13 14 13 13 13 12 11 9 8 9 8 6 7 6 7 7 7
5 3 4 3 3 1 9 12 18 17 17 11 12 11 7 9 8 12 20 19 14 10 8 14 15 14 13 12 13 14 12 11 11 12 12 12 12 11 10 9 8 9 8 8 9 8 7 7 6
4 4 3 3 11 11 8 15 15 15 10 16 11 9 10 7 16 22 19 16 14 10 7 10 15 14 13 12 11 12 11 11 11 10 11 10 11 12 11 10 8 8 8 9 8 8 7 6 7
6 3 3 5 5 8 14 19 17 16 15 15 14 12 4 18 22 17 17 17 15 14 10 10 13 12 12 11 10 11 10 9 10 10 9 9 10 10 8 10 9 8 7 7 7 6 5 6 4
4 2 2 4 3 7 13 16 14 17 16 7 14 9 7 16 17 17 14 12 12 12 11 9 8 11 13 11 10 10 10 9 8 9 9 9 7 7 8 9 8 7 7 7 6 7 6 4 4
3 4 4 3 7 4 11 7 15 18 8 15 15 7 11 15 19 17 14 13 12 10 9 8 7 6 6 6 11 10 10 9 7 8 8 8 8 7 7 6 8 8 7 7 8 8 7 6 5
0 4 8 10 3 3 8 7 7 10 16 11 5 10 20 21 20 18 15 11 10 9 8 8 8 7 6 6 7 10 11 10 9 8 8 7 2 4 6 7 7 7 8 8 7 6 7 7 6
5 3 7 8 13 9 9 6 12 11 16 10 10 13 23 25 21 19 16 14 13 13 11 9 8 9 7 7 5 5 5 4 5 5 4 3 3 4 5 7 9 10 10 9 8 9 9 5 2
6 8 1 17 3 10 4 6 2 17 12 21 20 19 26 24 21 20 18 18 20 16 12 12 10 8 8 6 4 3 2 3 3 5 5 5 3 3 3 2 3 2 7 0 4 4 4 3 3
9 17 20 11 12 4 5 11 5 5 10 19 19 15 24 22 21 20 19 18 15 15 14 12 11 10 10 4 5 4 3 3 3 4 5 3 3 2 3 2 3 3 3 3 4 3 5 4 5
2 3 20 14 14 5 7 7 5 10 18 17 16 12 8 16 19 19 19 17 15 15 14 13 12 11 9 6 4 4 5 5 6 4 5 4 3 3 3 4 3 4 3 5 3 4 4 5 5
4 6 8 8 1 5 6 8 2 13 18 17 16 11 7 8 20 15 16 14 15 14 13 11 13 12 7 6 7 5 4 5 5 4 6 6 4 4 3 3 3 4 4 4 4 5 5 5 4
16 6 1 7 3 1 2 3 2 14 19 19 15 13 9 9 9 13 17 14 15 14 12 14 11 9 8 7 6 4 4 4 4 2 3 5 4 3 4 2 2 1 3 2 3 4 3 3 4
3 3 5 3 7 0 4 5 5 7 19 16 15 14 12 10 10 10 15 12 9 13 13 10 10 8 8 6 5 3 2 2 0 1 1 5 6 5 3 2 1 1 0 3 2 3 1 0 4
4 3 5 4 7 4 5 1 5 7 13 14 14 13 12 11 7 11 16 14 11 15 14 10 9 8 8 4 4 5 4 4 5 6 2 1 2 3 3 1 2 2 2 3 2 2 2 1 4
6 3 6 3 6 11 5 12 3 5 12 15 14 12 9 10 9 12 15 14 11 14 14 11 8 8 7 4 2 0 3 2 4 6 5 4 3 3 4 1 2 3 2 2 1 3 1 2 3
9 4 4 6 9 7 13 17 12 9 8 11 9 10 10 10 8 11 16 15 9 13 13 13 10 7 6 3 3 1 2 3 3 4 7 6 5 5 5 3 3 2 3 2 1 1 4 3 1
7 3 3 5 7 7 6 9 6 5 10 8 13 13 15 9 9 10 15 15 14 14 12 10 12 10 8 5 3 3 3 3 3 3 3 3 4 5 4 4 4 5 4 3 3 3 2 1 1
6 10 8 5 4 1 2 7 5 2 3 4 10 14 13 14 14 13 15 15 14 14 12 12 12 13 9 7 3 2 2 3 3 1 2 4 5 5 5 6 5 5 4 3 3 3 4 1 1
8 14 17 8 5 4 8 5 6 7 8 8 7 17 15 14 13 13 13 16 17 16 13 12 12 14 10 9 5 5 4 4 3 3 2 3 6 6 5 6 6 6 4 4 3 2 2 3 2
20 19 19 8 7 5 4 5 6 9 8 17 15 14 18 18 17 18 17 19 18 17 15 12 13 13 12 12 9 7 4 3 3 2 4 4 3 4 5 6 6 6 4 5 5 4 5 2 2
4 5 5 6 5 2 7 5 4 10 19 15 18 16 20 20 18 19 16 16 17 14 14 13 13 14 12 13 10 9 9 7 5 3 3 3 1 3 4 5 5 6 5 5 5 4 5 4 4
7 7 3 0 1 7 5 2 9 19 13 16 21 15 11 18 17 19 18 17 16 18 16 12 14 14 13 12 11 9 9 9 8 6 5 5 3 2 4 5 5 4 5 5 5 5 4 3 3
4 9 8 5 3 5 4 5 7 3 5 9 5 8 13 18 18 19 21 17 18 19 18 15 15 13 13 12 12 11 9 7 5 5 4 4 4 4 6 6 6 6 6 5 6 4 3 4 3
6 2 8 7 1 4 4 5 4 6 5 6 11 8 9 19 19 17 19 18 15 18 20 20 17 15 14 15 11 10 10 9 7 6 5 5 4 4 6 7 7 6 7 6 7 4 4 5 4
9 5 3 4 4 3 5 4 6 4 4 2 6 11 6 7 14 15 13 18 15 20 20 19 19 19 17 15 12 11 11 10 8 7 8 8 7 7 7 7 7 7 7 7 6 4 4 6 3
1 0 5 6 6 7 3 6 14 7 7 8 2 4 8 9 9 6 4 16 18 16 16 18 17 17 15 14 12 12 10 9 9 10 10 10 8 8 8 8 7 8 7 8 8 7 6 6 6
7 9 7 7 4 0 5 4 15 7 7 6 1 8 4 10 8 6 3 3 9 12 13 17 16 16 15 15 12 12 11 9 10 11 10 9 10 7 9 9 8 7 7 7 8 8 7 7 6
Wind_Direction
99 180 156 136 53 80 61 101 102 99 87 301 164 123 108 44 136 157 141 153 139 138 128 122 115 110 111 105 107 110 110 110 108 108 114 117 122 124 135 140 150 153 155 148 141 137 128 125 129
178 219 157 253 80 68 355 77 84 99 120 93 84 114 55 81 69 110 128 147 142 140 126 129 118 118 117 114 111 113 114 115 114 115 117 121 119 130 135 139 154 156 157 162 163 162 140 152 153
165 174 80 69 95 120 114 117 105 116 126 112 117 78 79 109 104 135 131 135 139 137 131 134 132 133 128 120 113 113 112 120 121 122 125 120 124 134 131 136 143 146 147 168 161 172 162 172 169
93 44 20 85 101 329 115 125 118 114 106 85 105 74 82 123 114 135 139 139 138 144 143 141 142 144 136 131 125 120 119 127 125 124 120 121 130 130 133 138 143 141 143 148 153 163 184 167 167
36 70 3 69 83 83 97 121 116 96 79 89 108 114 107 120 123 134 140 140 140 142 152 144 153 154 144 138 134 128 132 132 129 124 119 125 132 134 136 136 148 136 150 145 150 161 169 162 168
44 41 89 82 77 88 103 120 108 99 107 105 101 120 112 137 143 150 149 149 148 149 157 164 153 154 148 142 153 138 136 132 134 133 132 132 133 134 142 145 150 150 162 152 154 164 169 164 156
74 63 84 99 94 100 125 129 123 124 131 120 136 94 123 146 153 150 143 137 143 150 150 151 155 164 156 159 165 151 139 143 144 140 141 143 141 151 163 155 154 163 171 158 170 171 179 197 169
3 309 47 45 81 75 148 130 144 148 132 143 136 147 165 166 155 142 137 140 146 155 157 156 156 167 158 174 173 164 154 159 154 161 156 152 162 172 187 174 168 182 179 179 182 194 191 200 209
31 9 21 3 81 161 129 121 161 129 134 157 225 131 161 157 149 135 140 147 150 161 171 168 168 173 171 181 186 175 170 168 177 185 174 177 168 212 203 201 189 204 198 202 200 208 215 198 234
31 60 50 46 38 332 352 121 121 126 153 125 120 105 152 156 151 150 157 162 168 172 183 182 176 183 180 183 186 183 178 170 187 194 196 182 192 222 215 228 209 220 214 207 208 213 237 224 196
302 42 134 87 71 306 13 340 16 138 148 153 159 140 149 155 161 162 169 172 178 180 179 184 182 190 185 190 168 176 173 197 203 193 200 208 198 224 218 220 231 240 250 191 239 223 226 241 215
142 200 135 150 173 262 58 325 285 147 173 160 157 160 151 157 172 167 172 181 174 178 185 183 182 187 199 160 170 175 170 202 214 206 224 211 215 178 201 239 229 199 250 243 224 228 222 220 230
232 320 97 116 150 217 318 350 309 112 137 150 155 163 170 156 165 176 175 178 173 178 185 180 181 190 191 157 173 182 186 196 215 194 201 193 204 192 151 249 221 197 212 229 212 219 240 225 247
207 40 37 51 84 66 49 316 359 141 140 152 159 170 197 177 168 173 180 170 171 183 178 164 180 188 154 160 187 195 177 203 204 207 187 189 196 175 188 208 223 220 186 211 231 211 215 222 231
115 99 197 74 57 71 77 23 73 153 152 158 169 177 194 206 177 164 173 172 158 167 150 159 165 167 151 179 163 144 180 199 190 231 227 168 217 212 184 142 206 273 213 268 239 216 189 240 233
87 99 107 264 145 118 74 250 189 184 155 166 172 182 193 216 213 165 171 169 141 149 148 150 152 157 160 166 124 126 170 191 158 35 166 188 184 180 136 165 281 21 251 235 217 260 331 200 213
343 206 137 219 215 114 145 28 292 169 165 171 181 189 197 215 228 170 172 171 149 156 155 161 150 161 157 158 141 155 165 186 166 188 226 181 226 153 151 183 125 95 23 49 55 58 146 68 46
218 252 65 134 201 206 228 233 229 238 175 182 183 191 203 211 211 171 172 175 152 162 163 155 158 165 158 149 133 103 66 93 137 153 171 215 199 186 184 159 151 116 138 62 56 70 6 73 102
206 123 190 190 231 160 219 250 207 229 171 181 197 190 197 205 201 165 172 174 153 161 157 163 153 172 144 138 152 132 163 216 229 253 162 224 183 177 178 156 132 114 121 129 119 110 47 44 32
195 155 240 251 237 219 235 234 214 236 202 184 188 205 198 188 172 165 167 169 167 169 163 156 167 164 167 167 175 158 185 205 190 175 189 316 226 176 180 120 95 134 123 104 71 74 83 358 350
192 160 221 197 73 137 80 322 228 268 340 248 207 206 200 192 175 179 167 168 168 169 169 165 172 172 174 175 147 74 59 47 28 84 257 232 189 175 163 131 121 131 110 121 97 80 99 73 323
181 200 191 205 106 206 159 243 253 194 254 277 250 198 198 192 187 182 169 171 176 179 172 162 167 174 176 170 177 161 169 162 202 194 167 265 206 172 172 137 123 131 126 125 119 89 100 112 42
257 181 191 177 155 71 290 93 281 118 251 250 237 216 202 196 183 184 183 176 183 174 175 172 169 174 177 181 184 171 177 198 140 180 203 221 158 161 157 148 142 133 123 132 123 106 81 68 99
221 127 62 59 80 346 244 160 253 186 219 221 247 224 205 194 188 187 185 177 179 176 172 176 173 182 183 183 186 177 181 185 169 176 200 191 163 131 145 152 142 135 137 138 123 112 102 108 100
81 67 23 116 72 219 254 24 221 213 199 195 217 226 215 198 185 186 187 181 175 179 175 184 179 187 190 190 187 176 183 187 192 171 178 170 157 157 173 153 152 148 156 135 126 117 107 119 113
149 141 149 193 197 251 20 241 262 105 287 231 209 193 222 199 189 185 189 182 182 180 179 179 185 190 193 194 200 196 168 188 193 176 176 192 187 181 166 167 159 161 146 133 114 111 104 91 69
246 146 190 120 87 72 265 296 11 86 21 95 140 129 171 182 186 189 188 190 174 181 184 186 185 192 196 199 196 200 179 179 198 190 183 196 185 186 178 174 170 169 149 137 130 139 136 128 117
150 171 44 10 168 206 291 284 224 142 161 262 87 120 138 133 180 182 186 188 181 184 186 186 186 190 196 199 196 200 199 185 175 178 198 201 199 181 178 175 172 164 158 142 140 134 142 127 117
358 82 78 121 133 156 188 277 346 168 201 132 117 69 103 117 111 102 227 185 188 182 180 186 186 190 195 197 200 196 194 187 176 190 200 199 194 185 182 175 169 171 161 155 146 147 148 131 131
153 188 137 124 249 276 141 312 331 39 349 338 39 342 16 65 45 359 315 221 181 176 172 185 186 190 196 196 195 197 187 183 193 202 200 191 195 182 179 171 172 173 162 162 160 157 153 147 145